エラスムス彗星

C/2020 S3 ( Erasmus )

English version
Home page
Updated on February 20, 2021

---------------------------------------------------------------------

・ プロフィール

発見日 2020年9月17日
発見光度 18.4等
発見者 Nicolas Erasmus (Asteroid Terrestrial-Impact Last Alert System (ATLAS) search program)

・ 写真集

・ 軌道要素

Epoch 2020 Dec. 17.0 TT = JDT 2459200.5
T 2020 Dec. 12.66984 TT                                 Rudenko
q   0.3985097            (2000.0)            P               Q
z  +0.0053200      Peri.  349.88235     -0.83267994     +0.50295267
 +/-0.0000431      Node   222.99802     -0.48136005     -0.86425424
e   0.9978799      Incl.   19.86120     -0.27374555     -0.01015956
From 522 observations 2020 Sept. 17-Dec. 5, mean residual 1".2.

・ 星図

・ 光度変化

        m1 = 9.0 + 5 logΔ + 10.0 log r

---------------------------------------------------------------------

軌道要素はM.P.E.C. 2021-B143に掲載されたものです。
星図はステラナビゲータ Ver.10 (アストロアーツ) で作成したものです。
光度グラフはComet for Windowsで作成したものです。

---------------------------------------------------------------------

Copyright(C) Seiichi Yoshida (comet@aerith.net). All rights reserved.